Time,TemperatureF,DewpointF,PressureIn,WindDirection,WindDirectionDegrees,WindSpeedMPH,WindSpeedGustMPH,Humidity,HourlyPrecipIn,Conditions,Clouds,dailyrainin,SoftwareType,DateUTC
2013-11-07 14:42:00,36.0,35.0,29.98,NNW,329,13.0,15.0,97,0.03,,,0.59,,2013-11-07 19:42:00,
2013-11-07 14:52:00,36.0,35.0,29.98,SW,215,3.0,16.0,97,0.03,,,0.59,,2013-11-07 19:52:00,
2013-11-07 15:11:00,37.0,36.0,29.97,WSW,257,8.0,18.0,97,0.01,,,0.59,,2013-11-07 20:11:00,
2013-11-07 15:22:00,37.0,36.0,29.97,WSW,257,8.0,18.0,97,0.01,,,0.59,,2013-11-07 20:22:00,
2013-11-07 15:42:00,36.0,35.0,29.98,NW,325,15.0,23.0,95,0.01,,,0.59,,2013-11-07 20:42:00,
2013-11-07 15:52:00,37.0,35.0,29.98,NW,323,14.0,18.0,92,0.00,,,0.59,,2013-11-07 20:52:00,
2013-11-07 16:12:00,37.0,34.0,29.98,WNW,298,14.0,19.0,90,0.00,,,0.59,,2013-11-07 21:12:00,
2013-11-07 16:22:00,37.0,34.0,29.98,WNW,298,14.0,19.0,90,0.00,,,0.59,,2013-11-07 21:22:00,
2013-11-07 16:43:00,37.0,34.0,29.99,NW,324,13.0,22.0,88,0.00,,,0.59,,2013-11-07 21:43:00,
2013-11-07 16:54:00,37.0,33.0,29.99,WNW,284,10.0,27.0,85,0.00,,,0.59,,2013-11-07 21:54:00,
2013-11-07 17:03:00,37.0,33.0,29.99,WNW,284,10.0,27.0,85,0.00,,,0.59,,2013-11-07 22:03:00,
2013-11-07 17:13:00,37.0,33.0,29.99,WNW,284,10.0,27.0,85,0.00,,,0.59,,2013-11-07 22:13:00,
2013-11-07 17:24:00,36.0,32.0,29.97,West,280,4.0,24.0,85,0.00,,,0.59,,2013-11-07 22:24:00,
2013-11-07 17:43:00,36.0,32.0,29.99,WNW,302,9.0,20.0,84,0.00,,,0.59,,2013-11-07 22:43:00,
2013-11-07 17:53:00,36.0,32.0,30.00,WSW,252,15.0,22.0,84,0.00,,,0.59,,2013-11-07 22:53:00,
2013-11-07 18:12:00,35.0,31.0,30.01,North,360,9.0,22.0,84,0.00,,,0.59,,2013-11-07 23:12:00,
2013-11-07 18:22:00,35.0,31.0,30.01,North,360,9.0,22.0,84,0.00,,,0.59,,2013-11-07 23:22:00,
2013-11-07 18:43:00,34.0,28.0,30.03,WNW,286,7.0,31.0,79,0.00,,,0.59,,2013-11-07 23:43:00,
2013-11-07 18:53:00,34.0,27.0,30.04,WNW,300,6.0,35.0,76,0.00,,,0.59,,2013-11-07 23:53:00,
2013-11-07 19:12:00,33.0,26.0,30.05,SW,230,7.0,25.0,74,0.00,,,0.59,,2013-11-08 00:12:00,
2013-11-07 19:22:00,33.0,26.0,30.05,NW,306,23.0,24.0,74,0.00,,,0.59,,2013-11-08 00:22:00,
2013-11-07 19:42:00,33.0,26.0,30.06,WSW,250,5.0,26.0,74,0.00,,,0.59,,2013-11-08 00:42:00,
2013-11-07 19:52:00,33.0,25.0,30.06,West,267,5.0,21.0,71,0.00,,,0.59,,2013-11-08 00:52:00,
2013-11-07 20:12:00,33.0,25.0,30.06,WSW,252,10.0,17.0,72,0.00,,,0.59,,2013-11-08 01:12:00,
2013-11-07 20:22:00,33.0,25.0,30.06,WSW,252,10.0,17.0,72,0.00,,,0.59,,2013-11-08 01:22:00,
2013-11-07 20:42:00,33.0,26.0,30.06,West,263,4.0,17.0,76,0.00,,,0.59,,2013-11-08 01:42:00,
2013-11-07 20:52:00,33.0,27.0,30.06,NW,311,6.0,17.0,77,0.00,,,0.59,,2013-11-08 01:52:00,
2013-11-07 21:12:00,33.0,27.0,30.05,NW,310,5.0,17.0,77,0.00,,,0.59,,2013-11-08 02:12:00,
2013-11-07 21:22:00,32.0,26.0,30.04,NNW,341,8.0,13.0,77,0.00,,,0.59,,2013-11-08 02:22:00,
2013-11-07 21:32:00,32.0,26.0,30.04,NNW,341,8.0,13.0,77,0.00,,,0.59,,2013-11-08 02:32:00,
2013-11-07 21:42:00,32.0,26.0,30.04,NNW,341,8.0,13.0,77,0.00,,,0.59,,2013-11-08 02:42:00,
2013-11-07 21:52:00,32.0,26.0,30.04,WNW,293,4.0,13.0,78,0.00,,,0.59,,2013-11-08 02:52:00,
2013-11-07 22:12:00,32.0,26.0,30.04,NW,318,13.0,17.0,79,0.00,,,0.59,,2013-11-08 03:12:00,
2013-11-07 22:22:00,32.0,26.0,30.04,NW,318,13.0,17.0,79,0.00,,,0.59,,2013-11-08 03:22:00,
2013-11-07 22:44:00,32.0,26.0,30.04,NW,318,14.0,15.0,79,0.00,,,0.59,,2013-11-08 03:44:00,
2013-11-07 22:55:00,32.0,26.0,30.04,NW,318,14.0,15.0,79,0.00,,,0.59,,2013-11-08 03:55:00,
2013-11-07 23:05:00,32.0,26.0,30.04,NW,318,14.0,15.0,79,0.00,,,0.59,,2013-11-08 04:05:00,
2013-11-07 23:13:00,32.0,26.0,30.04,NW,318,14.0,15.0,79,0.00,,,0.59,,2013-11-08 04:13:00,
2013-11-07 23:24:00,32.0,26.0,30.03,NW,306,11.0,19.0,79,0.00,,,0.59,,2013-11-08 04:24:00,
2013-11-07 23:44:00,32.0,27.0,30.03,NW,317,14.0,19.0,80,0.00,,,0.59,,2013-11-08 04:44:00,
2013-11-07 23:54:00,32.0,27.0,30.03,NW,317,14.0,19.0,80,0.00,,,0.59,,2013-11-08 04:54:00,